This is the latest recevied weather packets stored in our database for station/object WX7FGZ-7. If no packets are shown the sender has not sent any weather packets the latest 10 day(s).
| Time | Temp. | Humidity | Pressure | Rain* | Wind** | Luminosity | Snow |
|---|---|---|---|---|---|---|---|
| 1777839250 | 26.67° C | 20% | 1016.8 hPa | 0 mm | - | - | - |
| 1777839244 | 26.11° C | 20% | 1016.8 hPa | 0 mm | - | - | - |
| 1777838940 | 26.67° C | 20% | 1016.8 hPa | 0 mm | - | - | - |
| 1777838640 | 26.67° C | 20% | 1016.9 hPa | 0 mm | - | - | - |
| 1777838316 | 25.56° C | 22% | 1017.2 hPa | 0 mm | - | - | - |
| 1777838127 | 25.56° C | 22% | 1017.2 hPa | 0 mm | - | - | - |
| 1777838040 | 25.56° C | 22% | 1017.2 hPa | 0 mm | - | - | - |
| 1777838028 | 26.67° C | 20% | 1017.3 hPa | 0 mm | - | - | - |
| 1777837904 | 26.67° C | 20% | 1017.3 hPa | 0 mm | - | - | - |
| 1777837744 | 26.67° C | 20% | 1017.3 hPa | 0 mm | - | - | - |
| 1777837588 | 26.67° C | 20% | 1017.4 hPa | 0 mm | - | - | - |
| 1777837440 | 26.67° C | 20% | 1017.4 hPa | 0 mm | - | - | - |
| 1777837149 | 25.56° C | 22% | 1017.3 hPa | 0 mm | - | - | - |
| 1777836244 | 25.56° C | 21% | 1017.8 hPa | 0 mm | - | - | - |
| 1777835640 | 25.56° C | 21% | 1017.8 hPa | 0 mm | - | - | - |
| 1777835006 | 25° C | 23% | 1018.7 hPa | 0 mm | - | - | - |
| 1777834994 | 25.56° C | 22% | 1018.8 hPa | 0 mm | - | - | - |
| 1777834671 | 24.44° C | 24% | 1018.2 hPa | 0 mm | - | - | - |
| 1777834446 | 24.44° C | 24% | 1018.2 hPa | 0 mm | - | - | - |
| 1777834145 | 24.44° C | 23% | 1018.3 hPa | 0 mm | - | - | - |
| 1777833546 | 25° C | 21% | 1018.7 hPa | 0 mm | - | - | - |
| 1777833474 | 25° C | 23% | 1018.7 hPa | 0 mm | - | - | - |
| 1777833245 | 25° C | 23% | 1018.7 hPa | 0 mm | - | - | - |
| 1777833172 | 25.56° C | 22% | 1018.8 hPa | 0 mm | - | - | - |
| 1777832997 | 25.56° C | 22% | 1018.8 hPa | 0 mm | - | - | - |
* Rain latest hour (hover to see other rain measurements)
** Current wind speed in m/s (hover to see current wind gust speed)